Flight Track Log - Related Links

Times and Time Zones

All times are in EDT time to prevent confusion due to time zone crossing. See the N678DF flight status page for this flight to view local times or setup timezone preferences in your user account.

Time Position Orientation Groundspeed Altitude Reporting Facility
EDT Latitude Longitude Course Direction KTS MPH feet Rate Location/Type
Mon 04:27:13 PM 43.1025 -89.4114 206° Southwest 142 163 3,300  Level Chicago Center
Mon 04:28:15 PM 43.0686 -89.4347 207° Southwest 142 163 4,300 1,065 Climbing Chicago Center
Mon 04:29:17 PM 43.0331 -89.4594 207° Southwest 129 148 5,500 1,056 Climbing Chicago Center
Mon 04:30:20 PM 43.0047 -89.4800 208° Southwest 119 137 6,500 912 Climbing Chicago Center
Mon 04:31:00 PM 42.8979 -89.5015 206° Southwest  Level FlightAware Approximate
Mon 04:31:22 PM 42.9783 -89.4972 206° Southwest 111 128 7,400  Level Chicago Center
Mon 04:32:00 PM 42.8581 -89.5281 206° Southwest  Level FlightAware Approximate
Mon 04:32:24 PM 42.9497 -89.5175 207° Southwest 112 129 8,100  Level Chicago Center
Mon 04:33:26 PM 42.9142 -89.5419 207° Southwest 135 155 8,000 -48 Descending Chicago Center
Mon 04:34:28 PM 42.8661 -89.5733 206° Southwest 161 185 8,000  Level Chicago Center
Mon 04:35:30 PM 42.8250 -89.6011 206° Southwest 163 188 8,000  Level Chicago Center
Mon 04:37:34 PM 42.7433 -89.6572 207° Southwest 164 189 8,000  Level Chicago Center
Mon 04:38:36 PM 42.7011 -89.6842 205° Southwest 166 191 8,000  Level Chicago Center
Mon 04:39:38 PM 42.6519 -89.7186 207° Southwest 169 194 8,000  Level Chicago Center
Mon 04:40:41 PM 42.6089 -89.7458 205° Southwest 169 194 8,000  Level Chicago Center
Mon 04:41:43 PM 42.5686 -89.7733 207° Southwest 166 191 8,000  Level Chicago Center
Mon 04:42:45 PM 42.5283 -89.8014 207° Southwest 162 186 8,000  Level Chicago Center
Mon 04:43:47 PM 42.4878 -89.8278 206° Southwest 162 186 8,000  Level Chicago Center
Mon 04:44:49 PM 42.4408 -89.8581 205° Southwest 161 185 8,000  Level Chicago Center
Mon 04:45:51 PM 42.4011 -89.8858 207° Southwest 160 184 8,000  Level Chicago Center
Mon 04:46:53 PM 42.3586 -89.9119 204° Southwest 161 185 8,000  Level Chicago Center
Mon 04:47:55 PM 42.3206 -89.9403 209° Southwest 159 183 8,000  Level Chicago Center
Mon 04:48:57 PM 42.2886 -89.9761 220° Southwest 152 175 8,000  Level Chicago Center
Mon 04:49:59 PM 42.2453 -89.9969 200° South 163 188 8,000  Level Chicago Center
Mon 04:51:02 PM 42.2044 -90.0161 199° South 158 182 8,000  Level Chicago Center
Mon 04:52:04 PM 42.1583 -90.0461 206° Southwest 156 180 8,000  Level Chicago Center
Mon 04:53:06 PM 42.1172 -90.0675 201° Southwest 160 184 8,000  Level Chicago Center
Mon 04:54:08 PM 42.0753 -90.0808 193° South 156 180 8,000  Level Chicago Center
Mon 04:55:10 PM 42.0331 -90.0911 190° South 156 180 8,000  Level Chicago Center
Mon 04:56:12 PM 41.9897 -90.1039 192° South 159 183 8,000  Level Chicago Center
Mon 04:57:14 PM 41.9369 -90.1197 193° South 161 185 8,000  Level Chicago Center
Mon 04:58:16 PM 41.8953 -90.1300 190° South 157 181 8,000  Level Chicago Center
Mon 04:59:18 PM 41.8519 -90.1431 193° South 159 183 8,000  Level Chicago Center
Mon 05:00:21 PM 41.8092 -90.1542 191° South 158 182 8,000  Level Chicago Center
Mon 05:01:23 PM 41.7569 -90.1639 188° South 160 184 8,000 -581 Level Chicago Center
Mon 05:02:25 PM 41.7092 -90.1839 197° South 166 191 6,800 -1,113 Descending Chicago Center
Mon 05:03:27 PM 41.6617 -90.1961 191° South 173 199 5,700 -1,016 Descending Chicago Center
Mon 05:04:29 PM 41.6133 -90.2164 197° South 178 205 4,700 -871 Descending Chicago Center
Mon 05:05:31 PM 41.5661 -90.2400 201° Southwest 184 212 3,900 -677 Descending Chicago Center
Mon 05:06:33 PM 41.5278 -90.2311 170° South 161 185 3,300 -435 Descending Chicago Center
Mon 05:07:35 PM 41.4911 -90.2350 185° South 137 158 3,000 -145 Descending Chicago Center
Mon 05:08:37 PM 41.4789 -90.2761 248° West 129 148 3,000 -194 Level Chicago Center
Mon 05:09:39 PM 41.4703 -90.3292 258° West 136 157 2,600 -435 Descending Chicago Center
Mon 05:10:41 PM 41.4536 -90.3817 247° West 148 170 2,100 -288 Descending Chicago Center
Mon 05:11:44 PM 41.4336 -90.4447 247° West 151 174 2,000 -95 Descending Chicago Center
Mon 05:13:00 PM 41.4333 -90.5000 233° Southwest  Level FlightAware Approximate

Login

Don't have an account? Register now (free) for customized features, flight alerts, and more!